Location: Sternwarte Zollern-Alb
(48.2880°N, 8.6780°E)
Time: 00:18:14
(UTC+02:00)

ISS - Visible Passes

Search period start: 22 April 2026 00:00
Search period end: 02 May 2026 00:00
Orbit: 415 x 425 km, 51.6° (Epoch: 21 April)

Date Brightness Start Highest point End Pass type
(mag) Time Alt. Az. Time Alt. Az. Time Alt. Az.
22 Apr -1.1 03:56:15 12° SE 03:56:15 12° SE 03:57:15 10° ESE visible
22 Apr -3.5 05:29:12 12° SW 05:32:11 60° SSE 05:35:32 10° ENE visible
23 Apr -3.0 04:43:38 27° SSW 04:44:54 40° SSE 04:48:06 10° ENE visible
24 Apr -2.3 03:58:00 27° SE 03:58:00 27° SE 04:00:35 10° E visible
24 Apr -3.6 05:30:57 10° WSW 05:34:16 73° NNW 05:37:39 10° ENE visible
25 Apr -1.0 03:12:18 13° E 03:12:18 13° E 03:12:51 10° E visible
25 Apr -3.8 04:45:15 28° WSW 04:46:52 85° SSE 04:50:16 10° ENE visible
26 Apr -3.7 03:59:30 60° SSE 03:59:30 60° SSE 04:02:51 10° ENE visible
26 Apr -3.0 05:33:07 10° W 05:36:25 50° N 05:39:44 10° ENE visible
27 Apr -1.8 03:13:42 24° E 03:13:42 24° E 03:15:21 10° ENE visible
27 Apr -3.3 04:46:38 18° W 04:48:56 58° NNW 04:52:16 10° ENE visible
28 Apr -3.7 04:00:48 53° W 04:01:27 72° NNW 04:04:50 10° ENE visible
28 Apr -2.8 05:35:17 10° WNW 05:38:32 45° N 05:41:49 10° ENE visible
29 Apr -2.8 03:14:55 45° ENE 03:14:55 45° ENE 03:17:22 10° ENE visible
29 Apr -2.8 04:47:51 11° WNW 04:51:00 46° N 04:54:17 10° ENE visible
30 Apr -1.2 02:29:00 17° ENE 02:29:00 17° ENE 02:29:52 10° ENE visible
30 Apr -3.0 04:01:57 27° WNW 04:03:27 49° N 04:06:45 10° ENE visible
1 May -3.2 03:16:01 57° N 03:16:01 57° N 03:19:14 10° ENE visible
1 May -2.8 04:49:44 10° WNW 04:53:01 47° N 04:56:19 10° E visible
